GFSGL_500_rhum_132.txt.gz
RH
16 18 24 35 46 60 64 88 64 59 61 56 49 49 52 50 38 44 44 40 36 39 31 22 21 20 19 17 20 21 24 34 38 39 44 42 50 62 48 53 40 39 27
25 28 33 45 45 48 55 68 77 65 64 61 71 70 59 48 50 52 55 50 56 57 52 38 38 36 40 53 52 46 38 36 38 41 42 57 58 57 54 60 55 42 40
17 22 27 30 34 45 51 54 60 72 76 63 59 65 65 61 51 42 47 65 66 52 62 64 57 51 61 73 74 74 72 76 75 94 84 76 80 79 73 79 59 54 61
10 9 9 12 16 19 25 34 38 41 40 43 43 50 53 50 41 32 25 32 63 72 66 70 72 66 77 80 85 83 82 84 86 94 96 94 94 93 93 88 86 86 76
15 14 12 9 8 9 11 11 12 19 30 28 29 25 23 20 22 27 30 23 22 29 48 59 67 80 76 77 84 78 76 79 77 83 87 96 96 96 83 98 95 98 92
23 20 17 21 16 20 16 27 23 19 9 11 19 26 17 19 19 44 54 38 23 18 17 26 31 39 51 60 68 60 79 81 64 59 78 89 85 87 84 86 96 88 87
40 28 21 23 27 38 37 31 30 25 15 16 19 28 41 38 38 70 53 72 79 73 61 48 34 26 28 34 44 57 74 67 65 62 68 76 82 80 86 82 73 71 76
74 41 35 29 30 66 74 34 25 24 20 53 58 33 73 90 82 73 79 90 94 93 82 92 75 63 76 79 69 65 68 82 84 77 80 82 78 83 78 78 82 82 78
97 96 96 95 82 80 74 80 66 35 49 86 78 81 78 95 92 66 66 78 86 91 90 95 88 85 74 90 90 83 87 98 92 94 97 98 90 84 84 82 84 85 88
96 95 89 86 91 94 97 96 96 85 52 55 69 76 84 76 67 71 61 68 70 72 81 85 91 91 85 92 90 87 69 91 100 99 90 85 92 95 94 96 98 100 94
95 92 93 97 95 96 95 94 94 77 68 68 76 69 74 82 84 69 67 66 64 96 92 86 92 97 96 92 95 90 86 98 97 98 98 99 94 94 99 91 91 89 99
90 80 92 96 98 96 95 91 85 80 78 80 85 87 81 62 64 77 70 65 80 97 96 98 98 100 97 97 95 94 91 94 93 93 94 96 96 98 100 98 95 100 98
95 76 59 80 90 89 88 88 70 83 74 52 59 77 67 71 59 42 35 54 49 50 65 65 72 89 95 95 95 94 98 98 100 100 95 96 91 96 96 99 97 94 96
54 57 49 62 70 65 72 53 61 62 48 36 34 36 31 28 25 21 20 35 53 50 56 46 49 55 69 69 74 84 97 97 96 96 98 97 95 96 96 96 96 97 97
41 40 40 49 54 40 33 42 71 63 49 42 39 36 30 26 22 19 16 18 24 37 63 67 81 94 98 95 96 98 97 92 95 96 96 97 96 97 99 89 93 92 94
40 39 37 36 34 33 30 33 42 54 45 37 32 31 28 23 20 18 17 20 36 65 92 97 97 97 97 97 96 97 98 99 97 96 98 96 97 98 100 99 97 98 96
38 36 39 44 40 40 38 38 38 36 36 32 26 24 24 23 22 22 23 26 30 42 50 52 50 43 36 34 45 78 87 95 96 97 97 97 97 95 90 82 70 71 80
41 38 36 40 35 36 33 34 34 32 31 28 26 24 22 23 24 24 23 21 19 18 17 16 15 15 17 18 20 20 22 22 23 22 22 23 24 26 27 28 30 37 36
41 33 32 30 30 31 32 30 29 29 26 23 22 21 18 14 11 9 8 8 7 7 8 6 6 6 6 7 9 10 10 11 11 11 11 12 14 16 18 21 20 19 18
35 32 31 30 28 28 26 23 18 16 15 13 11 8 6 6 8 9 7 6 6 7 9 9 12 13 15 16 19 21 21 24 28 29 29 28 28 28 26 24 22 21 20
30 27 23 19 15 11 10 9 8 7 6 6 6 5 5 5 6 8 10 13 16 18 19 20 19 20 18 23 24 25 26 25 24 22 19 19 15 12 9 7 6 5 6
11 10 9 8 8 7 7 6 6 5 5 4 5 7 10 14 17 17 18 18 18 22 24 27 29 28 28 27 23 18 13 8 6 5 5 5 6 7 8 9 9 9 9
8 7 6 6 5 5 5 5 5 7 8 9 11 14 19 20 21 21 26 26 27 29 29 29 27 21 15 12 8 6 6 6 6 7 7 8 8 8 7 6 5 5 5
6 8 8 9 12 17 16 15 16 17 18 20 24 26 27 26 28 28 28 29 30 30 29 22 13 8 8 8 7 7 7 8 9 8 7 6 6 6 6 7 7 8 8
34 33 34 31 28 30 32 34 33 33 36 38 36 36 33 31 30 29 31 30 30 21 12 9 9 9 9 9 9 9 9 8 7 6 7 7 8 10 11 11 12 16 18
34 34 38 30 17 30 39 46 45 46 43 38 38 37 35 34 30 29 27 20 14 12 12 12 11 11 10 10 10 9 8 7 8 8 9 11 13 14 13 16 22 28 49

GFSGL_500_rhum_135.txt.gz
RH
11 12 13 14 39 56 56 63 73 73 74 67 69 66 66 75 65 63 67 69 64 52 48 41 36 29 23 21 22 27 32 35 38 42 50 47 53 56 64 51 49 50 47
14 15 17 22 31 44 56 68 80 85 76 78 74 76 74 68 65 68 62 64 68 61 66 65 59 38 41 40 54 58 55 67 66 57 72 57 60 72 83 76 54 63 56
20 25 26 31 41 48 50 56 60 70 81 80 79 66 66 68 64 62 56 36 33 61 69 59 60 66 60 54 62 76 77 78 80 80 79 91 96 86 91 96 95 97 91
19 22 26 30 30 35 37 40 47 49 48 48 51 53 51 52 53 48 35 36 23 23 39 62 67 67 75 71 70 73 78 79 87 87 89 86 91 94 92 93 93 96 100
29 26 14 14 15 16 18 17 18 19 21 29 35 30 30 27 22 22 20 20 27 29 22 24 26 24 30 41 68 72 74 79 70 75 74 62 63 75 91 95 92 89 96
81 47 26 13 16 16 13 11 11 13 14 14 13 15 19 16 23 33 39 27 48 55 52 41 27 27 24 25 28 28 36 47 61 75 72 74 77 78 87 96 95 89 97
44 61 67 28 26 26 24 27 31 31 44 40 43 44 39 39 38 49 57 58 59 75 64 76 87 85 77 62 46 38 49 60 60 62 62 57 63 68 71 76 88 89 94
62 94 83 47 47 38 34 32 46 59 62 40 37 38 27 34 38 37 57 71 73 63 64 76 78 76 74 78 85 70 79 93 89 89 89 88 85 76 79 84 84 83 83
88 91 76 74 51 50 53 54 42 61 76 66 53 40 41 61 57 58 68 72 67 69 56 64 73 70 72 74 82 87 87 77 78 82 90 94 91 82 87 81 84 90 84
81 76 75 75 92 77 97 88 88 84 97 85 89 80 40 40 42 56 54 60 55 54 62 61 60 58 59 70 81 89 86 87 90 89 87 87 75 94 85 86 92 98 96
95 99 97 87 92 95 96 91 94 91 89 84 85 87 82 59 54 60 64 62 57 62 63 59 58 54 63 76 78 82 95 98 97 94 98 92 86 96 99 97 97 97 97
98 98 97 97 92 95 88 92 100 89 84 78 73 69 65 63 68 76 70 65 58 49 46 57 68 67 69 70 79 89 99 98 97 96 94 95 96 98 96 98 98 98 90
91 93 93 92 94 92 95 98 98 86 73 72 69 55 54 67 79 81 72 56 55 43 29 39 42 45 46 56 65 65 68 75 77 80 81 92 97 96 94 91 95 94 81
90 76 84 50 66 47 43 54 63 59 60 48 54 48 38 36 39 39 38 34 28 26 24 21 20 20 20 39 47 49 72 91 90 84 87 91 92 97 100 100 99 97 94
60 55 50 61 39 38 41 43 38 41 40 46 56 51 41 36 35 35 32 27 22 20 18 17 18 18 22 28 58 77 80 80 84 92 96 99 98 98 98 96 98 100 99
63 56 49 44 41 37 34 34 40 36 29 30 40 56 52 39 31 29 27 22 20 19 18 17 16 18 23 30 50 70 82 59 57 84 94 94 75 64 82 96 97 97 95
67 66 61 51 55 44 35 34 33 33 33 31 32 34 33 33 30 25 24 23 21 19 20 20 20 19 18 17 17 16 14 14 11 9 8 8 10 12 13 17 19 13 12
73 66 62 53 38 34 36 35 34 35 34 36 37 35 31 30 27 23 21 19 19 16 12 9 6 6 5 5 5 5 5 5 5 7 9 9 10 14 16 18 20 22 22
70 67 60 51 43 43 37 36 36 29 30 31 31 29 27 26 24 20 17 12 8 6 5 5 5 5 6 5 7 9 10 11 12 12 14 16 18 20 20 23 24 22 20
73 70 62 51 50 46 37 35 32 29 26 27 24 22 18 16 12 7 5 4 4 4 4 5 8 10 12 14 15 15 14 16 20 23 23 23 24 20 15 13 10 6 5
68 55 54 48 42 38 34 32 26 20 14 12 10 8 6 6 6 5 5 5 8 12 14 14 14 16 16 18 20 22 24 24 22 16 11 9 7 6 6 6 6 6 6
48 35 31 26 23 18 15 11 9 8 8 7 6 6 5 4 5 7 10 14 18 18 21 23 24 24 24 25 26 24 16 10 8 8 7 7 7 7 7 7 7 6 6
13 10 10 8 8 8 8 7 6 6 5 5 5 7 8 9 10 12 16 19 25 30 31 31 31 27 23 19 13 10 9 9 9 9 9 8 8 7 7 7 7 7 7
6 6 6 8 8 7 8 10 8 10 11 9 12 15 20 24 24 26 32 32 32 30 27 26 24 17 13 11 9 9 11 11 10 10 9 9 9 8 8 8 9 9 10
22 26 28 29 32 33 32 27 24 25 25 28 32 34 33 35 33 32 33 32 29 23 19 14 11 8 7 9 12 13 13 12 11 11 11 11 10 9 10 10 11 14 13
29 29 28 30 29 28 27 24 17 14 24 35 48 48 44 40 40 36 36 27 20 15 12 12 12 12 12 14 14 13 13 12 12 13 15 14 11 10 13 19 22 23 23

GFSGL_500_rhum_138.txt.gz
RH
17 15 10 23 38 29 47 60 59 61 70 69 70 65 56 64 62 59 64 62 63 62 64 61 57 47 35 41 35 44 54 50 54 47 43 53 54 56 64 69 82 68 52
21 19 16 13 19 27 48 72 83 96 89 84 82 85 82 72 68 68 68 58 51 62 65 64 62 63 63 55 47 48 58 65 78 74 77 76 78 85 85 85 94 95 93
17 18 17 18 21 24 46 67 82 82 87 82 78 82 75 76 76 67 62 58 43 29 30 59 71 62 58 67 67 62 70 76 83 78 80 83 82 93 93 96 96 92 93
20 19 24 30 24 38 56 67 68 67 68 66 62 65 68 60 54 50 47 41 43 32 31 29 29 41 58 68 68 67 77 80 76 82 86 78 78 75 83 84 88 90 88
22 18 22 27 33 37 44 49 49 46 42 39 37 36 37 41 50 38 34 35 35 29 25 46 48 28 23 21 16 24 32 66 80 68 59 69 74 84 77 78 85 83 79
72 46 33 33 24 24 25 26 23 18 17 31 26 31 20 32 33 50 35 41 37 48 46 57 70 64 71 67 61 52 32 28 25 26 32 49 64 76 74 85 84 84 80
84 70 50 45 63 26 13 15 19 18 22 26 42 50 64 42 31 37 55 61 55 62 79 81 70 72 81 81 80 79 79 74 61 58 82 88 81 75 69 67 81 80 87
96 93 62 96 92 67 36 29 54 54 49 55 60 61 57 47 48 56 61 60 60 72 69 76 71 69 64 69 70 72 76 77 85 90 81 81 94 94 90 87 96 91 94
96 94 70 83 81 94 86 65 77 82 62 62 70 82 94 86 59 67 62 62 65 59 57 54 57 55 61 59 52 55 56 65 80 84 89 95 96 93 98 99 95 90 84
94 97 96 95 93 96 86 88 96 92 82 94 85 94 98 97 92 96 71 42 47 46 58 54 52 52 57 64 63 60 56 58 71 82 79 94 97 97 97 95 96 93 81
92 97 97 95 97 97 98 98 91 93 89 97 98 95 84 83 81 94 94 92 69 62 66 65 64 63 62 58 54 52 58 62 67 75 81 99 99 95 100 98 97 98 97
86 85 96 97 98 98 95 97 97 97 98 96 98 100 88 75 71 68 72 78 79 78 72 67 53 39 49 51 49 55 49 50 64 70 90 100 98 99 98 99 100 98 99
96 98 96 97 97 99 99 95 96 96 96 96 96 92 73 62 61 63 72 75 82 70 64 48 34 24 19 19 20 23 22 22 41 43 42 54 79 78 71 67 71 78 87
92 94 93 96 92 91 61 82 87 96 96 94 84 71 58 62 43 38 35 35 35 34 33 30 27 26 26 23 23 22 19 22 29 43 60 86 88 89 88 90 92 98 98
76 82 92 75 80 62 57 49 48 59 63 61 52 51 50 52 49 44 38 35 32 33 33 30 25 20 19 18 17 16 16 17 21 28 33 35 34 30 27 32 38 52 55
64 63 73 89 57 55 68 50 40 40 38 35 34 33 33 34 37 44 51 43 33 29 27 24 22 21 19 17 16 17 18 17 15 12 9 7 6 5 5 5 6 7 8
65 72 74 74 79 74 64 63 54 50 42 36 33 31 30 28 28 30 32 33 32 31 28 24 22 20 18 15 11 8 6 5 5 4 4 5 6 8 9 9 9 10 11
70 71 74 66 70 64 59 68 71 48 46 46 38 34 36 34 33 32 32 30 29 29 27 23 20 14 8 5 4 4 4 5 6 8 9 10 10 12 15 18 18 19 19
71 70 65 68 73 68 60 56 43 38 39 39 37 35 33 30 26 25 24 23 20 18 16 9 5 4 3 4 5 7 10 12 12 13 14 16 19 19 19 19 16 13 10
74 72 60 67 81 62 55 52 45 41 40 34 31 30 27 24 22 19 16 14 10 7 5 5 4 5 8 12 14 13 14 20 23 23 22 20 19 13 8 6 5 6 7
68 62 58 88 82 72 71 64 51 46 38 33 30 27 21 16 13 10 8 6 6 5 4 4 6 11 13 16 25 27 25 25 20 17 12 9 6 6 8 9 9 8 7
59 66 95 94 84 74 49 40 38 33 27 23 16 13 11 9 7 6 6 5 5 6 7 10 12 15 22 25 22 19 15 13 10 8 6 7 9 11 11 10 9 8 8
26 26 26 42 41 36 36 29 14 10 8 8 7 6 5 5 5 6 7 9 10 13 16 19 24 26 25 26 18 14 10 8 6 6 8 10 11 12 11 10 10 10 10
12 10 8 8 8 8 8 7 6 6 5 6 9 11 12 11 17 25 29 29 30 32 35 34 31 28 23 17 12 10 8 8 10 11 12 12 13 13 12 11 11 11 10
7 10 18 21 20 19 20 20 18 16 20 26 26 25 20 18 24 30 34 36 36 35 37 37 31 22 15 12 10 9 10 10 12 14 15 14 14 14 13 13 12 11 12
32 34 34 34 33 32 32 33 30 29 28 27 23 15 11 15 35 39 39 40 40 42 44 41 33 22 15 12 11 12 14 16 16 16 16 16 15 15 16 16 14 14 14

GFSGL_500_rhum_141.txt.gz
RH
10 17 22 25 41 37 46 49 48 52 49 69 61 73 57 46 49 49 55 63 59 60 50 51 56 56 50 39 39 38 50 56 62 68 79 78 78 80 83 78 81 92 90
15 13 15 11 27 39 29 42 63 64 83 82 70 66 58 53 56 58 58 60 56 51 53 61 64 60 56 66 69 59 56 62 71 80 85 88 90 85 88 89 96 94 90
17 18 19 14 14 21 29 44 66 78 96 88 75 72 71 68 70 67 66 62 57 49 34 28 27 38 60 70 73 77 83 84 78 82 82 80 90 90 87 82 80 97 92
14 14 15 18 19 19 21 29 57 76 84 85 82 76 76 75 73 62 57 51 43 32 35 38 30 34 34 24 25 31 44 54 60 65 84 92 84 78 77 74 76 68 66
40 19 20 18 17 20 23 32 55 61 66 67 65 61 53 47 44 40 44 40 42 37 32 48 54 63 66 60 57 58 52 51 51 31 26 40 36 31 46 73 80 78 74
96 61 29 22 23 32 35 41 52 60 54 46 38 29 28 26 41 46 43 57 56 51 52 51 65 64 69 74 76 80 78 80 84 90 76 50 49 58 80 88 75 77 69
80 92 83 76 40 24 27 32 34 33 31 20 15 23 16 26 41 52 46 51 54 70 69 80 74 66 69 69 68 69 72 70 71 76 81 87 93 93 85 86 91 91 90
99 86 96 87 85 70 55 28 39 17 17 31 33 20 32 51 63 69 54 51 51 65 65 62 72 65 60 66 59 58 62 61 57 58 67 74 89 96 97 92 96 97 96
98 97 97 97 96 91 80 67 48 40 45 30 58 75 75 66 69 68 84 78 61 67 63 64 64 55 57 60 57 53 59 66 69 65 60 58 62 82 86 93 98 97 97
87 92 95 97 96 96 93 85 89 86 94 87 89 93 78 62 70 77 94 96 87 91 98 72 45 43 48 58 64 59 61 59 60 60 61 64 72 86 89 94 99 98 98
71 74 84 94 92 96 90 94 96 96 96 97 96 96 92 99 97 98 84 81 79 84 95 88 92 84 76 77 71 66 62 57 59 60 58 49 56 63 82 96 98 98 98
87 89 88 95 91 97 94 97 97 97 96 97 97 97 92 98 96 93 86 75 68 67 76 79 81 82 68 59 42 40 30 30 32 26 26 26 42 58 54 85 98 96 99
86 93 99 95 94 96 96 97 96 96 93 96 96 97 96 98 97 96 90 76 76 76 76 75 68 56 45 37 29 23 21 19 17 16 18 18 17 26 31 47 60 61 54
64 98 96 97 98 98 96 96 95 96 96 97 97 97 97 97 96 84 64 48 41 37 37 37 38 37 35 34 30 27 23 21 19 18 17 17 17 17 17 16 13 12 10
79 98 96 94 96 95 95 94 95 94 91 93 94 93 90 89 82 73 65 57 51 46 43 41 40 34 27 25 24 22 22 20 18 17 16 15 12 8 6 5 5 6 8
49 60 79 79 86 90 93 89 91 75 68 63 60 57 52 53 48 41 37 35 33 31 31 32 31 31 31 28 25 22 21 20 15 11 7 5 4 4 5 5 6 8 9
80 83 74 76 84 94 90 89 93 90 76 66 56 49 44 42 40 37 32 34 36 34 32 32 30 30 28 26 23 18 11 7 6 4 4 4 6 9 11 12 12 14 16
73 74 84 81 84 84 85 94 86 88 94 91 86 79 63 59 49 48 43 37 35 32 29 26 23 20 18 16 11 7 6 4 4 7 9 11 11 13 17 18 18 15 11
84 92 84 82 79 87 80 78 79 83 70 65 62 64 65 62 71 60 41 29 25 22 20 17 15 11 8 6 6 5 6 8 10 11 11 17 18 17 15 11 9 6 5
76 95 100 96 88 80 68 70 75 88 78 67 61 51 46 41 34 30 28 25 20 16 12 9 7 6 5 5 6 10 12 10 12 20 21 19 15 12 9 6 5 6 8
89 91 90 89 77 70 67 69 70 86 75 71 62 52 43 37 30 24 16 12 9 7 6 5 5 6 8 10 14 14 19 24 26 26 21 14 10 6 6 6 7 8 9
69 80 82 75 75 73 80 91 74 67 55 42 34 25 21 16 12 8 7 6 5 5 5 7 12 16 19 23 28 29 30 28 26 18 12 8 7 7 8 10 11 12 13
69 50 59 58 61 84 96 91 88 68 30 14 10 8 8 6 5 7 9 13 14 13 16 23 26 29 29 32 33 33 30 24 17 15 11 8 8 9 10 12 14 15 15
94 78 30 21 16 15 30 14 11 9 7 8 8 10 12 18 22 23 21 20 19 21 24 26 29 32 34 38 40 34 25 20 16 12 10 10 11 12 14 16 17 17 15
28 26 27 30 22 10 9 14 21 26 30 32 28 27 27 26 24 23 21 18 17 32 38 40 42 41 43 47 45 37 28 20 14 11 12 15 15 17 19 19 19 18 19
12 17 24 27 28 30 30 30 29 31 31 29 29 28 26 26 25 24 29 39 43 48 48 45 43 44 48 53 49 25 18 15 12 14 18 19 22 22 22 20 18 20 26

GFSGL_500_rhum_147.txt.gz
RH
28 33 40 50 40 29 32 31 28 25 23 23 52 69 73 66 38 38 50 43 51 53 52 49 47 49 54 57 58 56 64 67 61 66 73 75 77 78 78 81 84 83 83
30 37 37 44 47 45 45 42 37 33 32 34 44 57 65 70 41 40 40 42 54 57 57 57 54 59 61 58 58 57 72 86 85 85 87 85 89 92 88 90 89 76 63
14 18 32 36 34 39 38 42 38 37 38 40 48 59 58 54 40 55 62 57 65 66 60 52 36 30 27 26 28 30 33 42 50 47 32 37 42 26 33 69 78 57 37
16 15 13 12 20 24 31 35 36 39 42 41 54 65 59 63 60 57 62 72 73 67 61 54 42 31 34 40 47 59 67 53 41 49 48 55 80 87 82 53 33 32 40
19 18 20 17 12 13 13 19 35 38 48 49 49 74 69 66 74 66 74 79 77 63 52 39 36 59 48 52 64 74 70 74 73 78 80 82 80 80 80 83 81 81 82
18 24 21 18 19 20 20 12 10 22 38 50 59 67 78 77 77 71 71 84 66 44 44 55 56 57 58 57 74 82 72 72 70 68 69 69 67 68 63 63 65 63 68
53 47 48 21 20 16 17 18 16 15 16 22 38 55 65 68 64 67 72 62 41 46 39 29 32 43 52 59 70 68 65 68 62 56 51 49 49 51 48 57 62 60 69
60 59 60 49 43 16 16 16 17 22 16 18 26 45 54 61 57 47 45 36 39 39 50 61 61 53 51 44 54 62 60 60 57 50 38 36 40 49 56 62 56 56 57
83 73 88 57 36 26 44 28 30 38 22 22 26 37 50 56 54 52 39 30 40 73 69 72 68 69 80 86 90 76 76 88 83 61 79 71 65 62 63 57 55 52 48
98 97 97 82 64 52 70 74 90 70 69 35 24 29 34 38 35 34 44 41 59 87 82 69 78 84 94 90 87 86 85 88 92 88 74 63 55 49 46 40 26 22 24
98 97 97 94 94 94 96 92 85 96 94 96 95 71 30 51 43 34 42 36 87 89 96 84 80 90 90 83 74 67 67 73 75 73 66 60 53 36 28 28 28 24 22
93 96 94 96 89 88 79 74 76 88 91 95 96 97 97 96 96 92 90 81 89 93 98 90 91 91 92 87 90 83 80 76 64 58 42 38 34 31 27 22 20 19 18
92 95 78 73 81 95 73 63 93 85 95 98 97 98 97 97 97 96 96 96 97 96 97 98 94 92 100 91 77 61 48 41 39 36 31 27 24 23 22 22 22 19 16
67 83 95 82 85 81 75 83 93 98 91 92 97 85 92 96 97 96 96 97 96 97 96 97 97 96 77 45 40 42 46 44 39 31 29 27 25 22 20 17 13 10 7
75 56 79 91 92 90 90 96 97 96 94 96 96 98 97 98 96 97 97 96 95 96 96 96 93 72 63 56 48 35 32 30 29 26 23 20 17 16 12 10 7 5 4
89 82 94 96 94 97 98 97 95 97 98 97 96 96 95 92 93 95 96 96 96 95 95 89 52 42 38 37 35 35 43 42 26 18 16 14 12 8 6 5 4 6 8
79 91 98 97 96 96 96 98 95 90 91 92 95 95 95 95 97 97 95 95 95 95 94 80 53 43 44 47 63 59 30 21 20 15 12 8 6 5 5 7 8 10 13
86 91 96 97 97 96 94 92 88 82 90 94 93 95 95 94 94 94 95 92 81 69 69 69 73 72 64 55 41 29 21 16 12 8 7 6 5 6 9 11 13 17 23
97 90 91 89 93 93 94 80 96 81 80 86 83 83 82 82 88 89 85 78 68 63 57 50 42 35 30 28 22 15 11 8 6 5 6 6 8 11 15 21 26 31 31
92 95 95 91 92 86 82 97 100 98 91 77 81 84 80 75 75 78 79 72 64 60 54 44 37 31 23 19 11 8 6 5 5 8 12 14 20 27 32 36 37 35 33
25 50 50 44 66 79 74 67 73 73 80 90 95 86 76 60 67 67 71 68 59 56 47 33 21 12 10 7 5 8 12 13 15 19 24 29 36 38 40 39 38 30 13
12 13 14 14 15 21 27 33 43 46 53 57 63 84 74 60 71 65 60 54 37 25 14 10 6 7 12 15 17 17 18 24 31 36 38 38 41 43 41 27 11 10 10
42 51 49 35 22 26 40 46 63 68 64 69 73 71 70 81 61 55 52 28 20 16 8 13 20 21 20 21 22 28 32 37 41 44 49 48 43 23 11 11 11 11 14
52 73 77 67 54 66 79 78 76 72 93 95 78 62 58 63 65 53 16 10 14 20 24 23 22 22 22 23 26 34 41 46 53 52 43 31 13 12 12 13 13 14 16
75 79 83 78 58 27 20 30 37 79 61 49 80 79 61 41 17 14 21 25 25 24 23 24 25 30 34 36 43 48 58 59 53 44 21 12 12 13 14 14 15 17 22
58 52 44 32 22 40 56 51 47 34 27 25 30 34 34 35 30 28 28 32 31 30 33 35 40 44 46 48 50 56 66 64 45 14 12 12 13 14 14 16 19 27 28